CLX51 LHBP-UBBB

Flight info

Callsign CLX51
Flight time N/A
Altitude 37000
Route GAZDA DCT MAVIR DCT INVED DCT DINRO N743 UDROS UM859 KARDE UN644 ROLIN N644 LAGAS DCT DISKA M737 VERCA M747 LUSAL N319 PENOB T447 INSAN
Aircraft B744/H-SDE3FGHIM1M2RWXY/LB1

Departure

Time N/A
Airport Budapest Liszt Ferenc International Airport (LHBP)

Arrival

Time 2025-09-05 00:18
Airport Heydar Aliyev International Airport (UBBB)
Time Latitude Longitude Altitude Speed Heading
2025-09-04 23:52 40.22850 48.74465 18090 ft 434 kts 115°
2025-09-04 23:52 40.21538 48.78023 17720 ft 429 kts 115°
2025-09-04 23:53 40.18267 48.88745 16513 ft 421 kts 103°
2025-09-04 23:53 40.17007 48.96178 15699 ft 414 kts 100°
2025-09-04 23:54 40.15909 49.03463 14993 ft 408 kts 99°
2025-09-04 23:54 40.14874 49.10740 14173 ft 404 kts 101°
2025-09-04 23:55 40.13723 49.17872 13444 ft 397 kts 102°
2025-09-04 23:55 40.12542 49.24882 12661 ft 389 kts 100°
2025-09-04 23:55 40.11999 49.28305 12338 ft 387 kts 99°
2025-09-04 23:56 40.11603 49.35240 11846 ft 382 kts 85°
2025-09-04 23:57 40.12151 49.45557 10755 ft 362 kts 83°
2025-09-04 23:57 40.12509 49.51818 10504 ft 327 kts 82°
2025-09-04 23:58 40.12824 49.57512 10083 ft 319 kts 82°
2025-09-04 23:58 40.13123 49.63110 9816 ft 292 kts 82°
2025-09-04 23:59 40.13388 49.68335 9162 ft 288 kts 81°
2025-09-04 23:59 40.13682 49.70848 9055 ft 282 kts 77°
2025-09-04 23:59 40.12950 49.75615 8814 ft 270 kts 122°
2025-09-05 00:00 40.10510 49.79287 7824 ft 268 kts 128°
2025-09-05 00:01 40.06678 49.84458 7843 ft 264 kts 125°
2025-09-05 00:01 40.04944 49.88681 7814 ft 261 kts 115°
2025-09-05 00:02 40.03304 49.92913 7795 ft 259 kts 113°
2025-09-05 00:02 40.01940 49.97182 7540 ft 252 kts 93°
2025-09-05 00:02 40.01722 49.99437 7148 ft 252 kts 94°
2025-09-05 00:03 40.01240 50.03911 6914 ft 254 kts 95°
2025-09-05 00:03 40.00808 50.08523 6922 ft 253 kts 96°
2025-09-05 00:04 40.01168 50.12934 6924 ft 244 kts 72°
2025-09-05 00:05 40.02356 50.19354 6924 ft 240 kts 71°
2025-09-05 00:05 40.03309 50.23514 6919 ft 236 kts 55°
2025-09-05 00:05 40.04172 50.25325 6921 ft 233 kts 52°
2025-09-05 00:06 40.06866 50.30621 6916 ft 233 kts 51°
2025-09-05 00:06 40.07781 50.32400 6917 ft 235 kts 51°
2025-09-05 00:07 40.09862 50.35694 6921 ft 230 kts 23°
2025-09-05 00:07 40.12847 50.35716 6734 ft 219 kts 331°
2025-09-05 00:08 40.15041 50.33085 6108 ft 214 kts 308°
2025-09-05 00:09 40.17710 50.28438 5586 ft 213 kts 311°
2025-09-05 00:09 40.19558 50.25414 5256 ft 212 kts 308°
2025-09-05 00:10 40.21330 50.22337 4984 ft 207 kts 308°
2025-09-05 00:10 40.23006 50.19458 4873 ft 192 kts 308°
2025-09-05 00:10 40.23806 50.18081 4702 ft 187 kts 308°
2025-09-05 00:11 40.25315 50.15481 4126 ft 167 kts 308°
2025-09-05 00:12 40.27038 50.12501 3846 ft 173 kts 307°
2025-09-05 00:13 40.29459 50.07550 3508 ft 157 kts 322°
2025-09-05 00:13 40.31763 50.06727 2672 ft 175 kts 349°
2025-09-05 00:14 40.33979 50.06477 2206 ft 146 kts 356°
2025-09-05 00:15 40.39763 50.06542 1090 ft 156 kts 356°
2025-09-05 00:16 40.41940 50.06422 806 ft 156 kts 355°
2025-09-05 00:17 40.45098 50.06328 149 ft 147 kts 358°
2025-09-05 00:17 40.46091 50.06331 0 ft 136 kts 355°
2025-09-05 00:17 40.47415 50.06297 3 ft 49 kts 358°
2025-09-05 00:18 40.48321 50.06280 16 ft 22 kts 358°
2025-09-05 00:19 40.48485 50.06255 16 ft 8 kts 310°
2025-09-05 00:20 40.48439 50.06064 18 ft 14 kts 184°
2025-09-05 00:20 40.48350 50.06060 17 ft 14 kts 178°
2025-09-05 00:21 40.47812 50.06069 11 ft 37 kts 176°
2025-09-05 00:21 40.47188 50.06086 4 ft 47 kts 178°
2025-09-05 00:22 40.46255 50.06101 -3 ft 29 kts 179°
2025-09-05 00:23 40.45895 50.06108 -9 ft 9 kts 188°
2025-09-05 00:24 40.45843 50.05923 -10 ft 8 kts 268°
2025-09-05 00:25 40.45842 50.05858 -10 ft 0 kts 270°